User: anonymous   Login
Location: Lamoine Observatory
(44.4551°N, 68.3470°W)
Time: 10:20:58
(UTC-05:00)
Language:

Cosmos 1674 Rocket - Orbit

View from above orbital plane
View from above orbital plane
View from above satellite
View from above satellite

Ground track
Ground track

The orbit data is extracted from the following two-line orbital elements,

1 15945U 85069B   16342.91813041 +.00000113 +00000-0 +10660-4 0  9997
2 15945 082.5268 312.1314 0019460 188.9507 171.1365 14.83898179671589
Epoch (UTC): 07 December 2016 22:02:06
Eccentricity: 0.0019460
inclination: 82.5268°
perigee height: 603 km
apogee height: 630 km
right ascension of ascending node: 312.1314°
argument of perigee: 188.9507°
revolutions per day: 14.83898179
mean anomaly at epoch: 171.1365°
orbit number at epoch: 67158

The dashed part of the orbit path shows where the satellite is in the earth's shadow,  

DLR